"2009-11-28 00:00:00",1454686,3.405,284.6,8.83,0.44,15.78,105.7442,13.98,14.93,9.03,0,110.4,13.33,14.78,246.6
"2009-11-28 00:00:30",1454687,2.784,286.3,4.008,0.224,15.76,105.7445,13.98,14.94,9.09,0,110.4,13.33,14.78,248.3
"2009-11-28 00:01:00",1454688,2.559,286.4,5.545,0.245,15.73,105.7405,13.97,14.93,9.13,0,110.4,13.33,14.77,248.4
"2009-11-28 00:01:30",1454689,2.623,283.7,2.314,0.217,15.75,105.7318,13.95,14.92,9.17,0,110.4,13.33,14.75,245.7
"2009-11-28 00:02:00",1454690,2.43,285.4,4.222,0.122,15.76,105.7265,13.93,14.91,9.22,0,110.4,13.33,14.73,247.4
"2009-11-28 00:02:30",1454691,2.313,282.3,4.239,0.165,15.77,105.7242,13.93,14.92,9.23,0,110.4,13.33,14.73,244.3
"2009-11-28 00:03:00",1454692,2.822,289.8,4.912,0.171,15.78,105.7217,13.92,14.91,9.23,0,110.4,13.33,14.72,251.8
"2009-11-28 00:03:30",1454693,2.873,286.5,1.15,0.077,15.69,105.7189,13.91,14.92,9.24,0,110.4,13.33,14.71,248.5
"2009-11-28 00:04:00",1454694,3.141,281.8,4.341,0.259,15.79,105.7172,13.91,14.91,9.22,0,110.4,13.33,14.71,243.8
"2009-11-28 00:04:30",1454695,3.607,277.5,2.718,0.144,15.8,105.7172,13.91,14.91,9.24,0,110.4,13.33,14.71,239.5
"2009-11-28 00:05:00",1454696,3.149,284.3,2.28,0.185,15.73,105.7172,13.91,14.89,9.26,0,110.4,13.33,14.71,246.3
"2009-11-28 00:05:30",1454697,3.361,281.7,1.981,0.125,15.75,105.7172,13.91,14.9,9.25,0,110.4,13.33,14.71,243.7
"2009-11-28 00:06:00",1454698,3.604,279.9,3.487,0.313,15.77,105.7172,13.91,14.9,9.26,0,110.4,13.33,14.71,241.9
"2009-11-28 00:06:30",1454699,3.244,271.5,2.57,0.396,15.68,105.7172,13.91,14.89,9.26,0,110.4,13.34,14.71,233.5
"2009-11-28 00:07:00",1454700,2.825,274,5.34,0.218,15.71,105.7172,13.91,14.9,9.31,0,110.3,13.34,14.71,236.0
"2009-11-28 00:07:30",1454701,3.22,278.1,3.712,0.183,15.75,105.7172,13.91,14.9,9.3,0,110.3,13.34,14.71,240.1
"2009-11-28 00:08:00",1454702,3.115,282.2,4.232,0.187,15.73,105.7172,13.91,14.9,9.3,0,110.3,13.34,14.71,244.2
"2009-11-28 00:08:30",1454703,2.879,283.5,3.59,0.136,15.66,105.7172,13.91,14.9,9.34,0,110.3,13.34,14.71,245.5
"2009-11-28 00:09:00",1454704,3.31,279.1,3.706,0.227,15.68,105.7172,13.91,14.9,9.4,0,110.3,13.34,14.71,241.1
"2009-11-28 00:09:30",1454705,3.755,277.8,5.662,0.18,15.65,105.7172,13.91,14.91,9.46,0,110.3,13.34,14.71,239.8
"2009-11-28 00:10:00",1454706,3.801,271.7,1.784,0.322,15.64,105.7172,13.91,14.91,9.42,0,110.3,13.34,14.71,233.7
"2009-11-28 00:10:30",1454707,3.528,271.7,4.223,0.255,15.64,105.7178,13.91,14.89,9.49,0,110.3,13.35,14.71,233.7
"2009-11-28 00:11:00",1454708,3.969,268.7,1.427,0.327,15.72,105.7175,13.91,14.9,9.47,0,110.3,13.35,14.71,230.7
"2009-11-28 00:11:30",1454709,4.124,265.4,1.055,0.079,15.52,105.7208,13.92,14.9,9.44,0,110.3,13.35,14.72,227.4
"2009-11-28 00:12:00",1454710,3.832,264.2,3.714,0.199,15.58,105.7217,13.92,14.9,9.52,0,110.3,13.35,14.72,226.2
"2009-11-28 00:12:30",1454711,4.327,272.2,4.004,0.253,15.63,105.7237,13.93,14.9,9.49,0,110.3,13.35,14.73,234.2
"2009-11-28 00:13:00",1454712,3.78,267.5,2.888,0.175,15.61,105.7303,13.94,14.91,9.38,0,110.3,13.35,14.74,229.5
"2009-11-28 00:13:30",1454713,3.67,265.7,2.965,0.196,15.68,105.7294,13.94,14.91,9.29,0,110.3,13.35,14.74,227.7
"2009-11-28 00:14:00",1454714,3.505,266.7,2.105,0.156,15.65,105.7279,13.94,14.91,9.24,0,110.3,13.35,14.74,228.7
"2009-11-28 00:14:30",1454715,3.374,270.2,2.412,0.144,15.66,105.7297,13.94,14.91,9.24,0,110.3,13.35,14.74,232.2
"2009-11-28 00:15:00",1454716,3.255,276.1,2.244,0.126,15.6,105.7324,13.95,14.91,9.31,0,110.3,13.35,14.75,238.1
"2009-11-28 00:15:30",1454717,3.204,270.4,3.613,0.166,15.6,105.7357,13.96,14.92,9.38,0,110.3,13.35,14.76,232.4
"2009-11-28 00:16:00",1454718,3.381,265.5,2.188,0.239,15.61,105.7428,13.97,14.91,9.39,0,110.3,13.35,14.77,227.5
"2009-11-28 00:16:30",1454719,3.853,263.8,3.346,0.154,15.67,105.7464,13.98,14.92,9.34,0,110.3,13.35,14.78,225.8
"2009-11-28 00:17:00",1454720,3.763,265.1,3.938,0.595,15.67,105.7515,14,14.92,9.25,0,110.3,13.35,14.80,227.1
"2009-11-28 00:17:30",1454721,3.488,267.8,2.357,0.184,15.68,105.7524,14,14.92,9.26,0,110.3,13.35,14.80,229.8
"2009-11-28 00:18:00",1454722,3.64,268.3,2.513,0.269,15.71,105.753,14,14.93,9.24,0,110.3,13.35,14.80,230.3
"2009-11-28 00:18:30",1454723,3.34,269.6,1.725,0.151,15.66,105.753,14,14.93,9.17,0,110.3,13.35,14.80,231.6
"2009-11-28 00:19:00",1454724,3.202,269.1,1.727,0.098,15.58,105.7527,14,14.93,9.37,0,110.3,13.35,14.80,231.1
"2009-11-28 00:19:30",1454725,3.642,268.4,2.441,0.298,15.65,105.753,14,14.92,9.5,0,110.3,13.35,14.80,230.4
"2009-11-28 00:20:00",1454726,3.455,263.5,4.941,0.099,15.66,105.753,14,14.94,9.48,0,110.3,13.35,14.80,225.5
"2009-11-28 00:20:30",1454727,4.412,269.2,10.44,1.362,17.63,105.7527,14,15.06,9.66,0,110.3,13.31,14.80,231.2
"2009-11-28 00:21:00",1454728,3.225,273.3,4.138,0.198,15.82,105.7507,13.99,15.02,9.71,0,110.3,13.35,14.80,235.3
"2009-11-28 00:21:30",1454729,5.218,277,7.388,1.291,17.14,105.7428,13.97,15.01,9.7,0,110.3,13.31,14.77,239.0
"2009-11-28 00:22:00",1454730,4.438,275.3,5.825,1.077,16.18,105.7366,13.96,15.11,9.84,0,110.3,13.31,14.76,237.3
"2009-11-28 00:22:30",1454731,4.366,280.3,6.951,1.125,15.96,105.7273,13.93,15.08,9.72,0,110.3,13.31,14.74,242.3
"2009-11-28 00:23:00",1454732,3.861,290.2,3.062,0.88,14.4,105.7205,13.92,15.03,9.75,0,110.3,13.31,14.72,252.2
"2009-11-28 00:23:30",1454733,4.497,295.2,9.64,1.324,15.97,105.7191,13.91,15.03,9.9,0,110.3,13.31,14.71,257.2
"2009-11-28 00:24:00",1454734,3.427,281.7,4.826,0.517,13.94,105.7191,13.91,15.06,9.98,0,110.3,13.35,14.71,243.7
"2009-11-28 00:24:30",1454735,3.427,277.5,4.25,0.22,13.12,105.7191,13.91,14.89,9.87,0,110.3,13.35,14.71,239.5
"2009-11-28 00:25:00",1454736,3.363,288.1,3.325,0.138,13.09,105.7191,13.91,14.9,9.93,0,110.3,13.35,14.71,250.1
"2009-11-28 00:25:30",1454737,3.163,287.1,2.745,0.129,13.37,105.7191,13.91,14.89,10.03,0,110.3,13.36,14.71,249.1
"2009-11-28 00:26:00",1454738,3.157,288,1.82,0.096,13.65,105.716,13.91,14.89,10.11,0,110.3,13.36,14.71,250.0
"2009-11-28 00:26:30",1454739,3.195,289.2,2.961,0.159,13.99,105.707,13.88,14.88,10.09,0,110.3,13.36,14.68,251.2
"2009-11-28 00:27:00",1454740,2.791,284.4,2.719,0.168,14.26,105.6904,13.84,14.88,10,0,110.3,13.36,14.64,246.4
"2009-11-28 00:27:30",1454741,2.466,275.6,4.314,0.158,14.46,105.6853,13.83,14.86,10.16,0,110.3,13.36,14.63,237.6
"2009-11-28 00:28:00",1454742,2.653,281.3,2.715,0.217,14.62,105.6853,13.83,14.84,10.22,0,110.3,13.36,14.63,243.3
"2009-11-28 00:28:30",1454743,2.745,295,4.22,0.17,14.7,105.6853,13.83,14.84,10.29,0,110.3,13.36,14.63,257.0
"2009-11-28 00:29:00",1454744,3.876,307,11.18,1.126,16.74,105.683,13.82,14.89,10.32,0,110.3,13.33,14.62,269.0
"2009-11-28 00:29:30",1454745,4.382,295.9,7.341,1.274,16.89,105.6655,13.78,14.94,10.12,0,110.3,13.33,14.58,257.9
"2009-11-28 00:30:00",1454746,2.902,305.6,13.37,1.004,14.7,105.6514,13.74,14.8,9.87,0,110.3,13.33,14.54,267.6
"2009-11-28 00:30:30",1454747,3.15,285.5,19.61,1.671,16.5,105.6517,13.74,14.95,10.05,0,110.3,13.32,14.54,247.5
"2009-11-28 00:31:00",1454748,2.855,277,4.869,0.709,13.98,105.6517,13.74,14.81,10.19,0,110.3,13.32,14.54,239.0
"2009-11-28 00:31:30",1454749,3.112,285.7,8.58,1.424,15.52,105.6532,13.74,14.82,10.38,0,110.3,13.32,14.54,247.7
"2009-11-28 00:32:00",1454750,4.235,300.4,7.009,1.224,16.52,105.6517,13.74,14.97,10.61,0,110.3,13.33,14.54,262.4
"2009-11-28 00:32:30",1454751,2.994,284.6,8.5,1.03,13.58,105.6533,13.74,14.75,10.39,0,110.3,13.33,14.54,246.6
"2009-11-28 00:33:00",1454752,3.025,286.7,4.485,0.248,12.6,105.6392,13.71,14.73,10.38,0,110.3,13.36,14.51,248.7
"2009-11-28 00:33:30",1454753,3.002,289.9,3.796,0.364,12.63,105.627,13.68,14.71,10.31,0,110.3,13.36,14.48,251.9
"2009-11-28 00:34:00",1454754,3.76,291.8,10.36,0.569,12.88,105.6262,13.68,14.7,10.27,0,110.3,13.36,14.48,253.8
"2009-11-28 00:34:30",1454755,4.98,300,2.411,0.258,13.28,105.6298,13.68,14.7,10.06,0,110.3,13.36,14.48,262.0
"2009-11-28 00:35:00",1454756,5.072,298,4.307,0.253,13.66,105.62,13.66,14.68,9.88,0,110.3,13.36,14.46,260.0
"2009-11-28 00:35:30",1454757,4.169,288.1,7.651,0.414,14.02,105.6007,13.61,14.66,9.91,0,110.3,13.36,14.41,250.1
"2009-11-28 00:36:00",1454758,3.594,301.7,4.152,0.563,14.23,105.6022,13.61,14.65,9.98,0,110.3,13.36,14.41,263.7
"2009-11-28 00:36:30",1454759,3.731,296.1,3.264,0.618,14.59,105.6055,13.62,14.71,10.17,0,110.3,13.33,14.42,258.1
"2009-11-28 00:37:00",1454760,4.954,293.8,11.49,1.047,16.27,105.6092,13.63,14.7,10.21,0,110.3,13.33,14.43,255.8
"2009-11-28 00:37:30",1454761,4.66,299.6,8.41,1.129,16.58,105.5974,13.6,14.8,10.36,0,110.3,13.33,14.40,261.6
"2009-11-28 00:38:00",1454762,3.283,289.3,9.71,0.791,13.96,105.5806,13.56,14.68,10.36,0,110.3,13.33,14.36,251.3
"2009-11-28 00:38:30",1454763,2.821,292.4,8.18,1.095,14.2,105.5827,13.56,14.58,10.34,0,110.3,13.32,14.36,254.4
"2009-11-28 00:39:00",1454764,4.31,314.6,14.04,1.259,16.37,105.5845,13.57,14.8,10.62,0,110.3,13.33,14.37,276.6
"2009-11-28 00:39:30",1454765,2.191,319.3,12.91,0.497,12.72,105.5833,13.57,14.57,10.59,0,110.3,13.33,14.37,281.3
"2009-11-28 00:40:00",1454766,2.096,305.6,6.789,0.479,12.24,105.5789,13.55,14.53,10.58,0,110.3,13.36,14.35,267.6
"2009-11-28 00:40:30",1454767,3.305,289.1,7.643,0.545,12.28,105.5563,13.5,14.51,10.59,0,110.3,13.36,14.30,251.1
"2009-11-28 00:41:00",1454768,3.358,280,5.589,0.269,12.49,105.5518,13.48,14.51,10.59,0,110.3,13.36,14.28,242.0
"2009-11-28 00:41:30",1454769,3.63,286.7,4.486,0.23,12.82,105.5518,13.48,14.49,10.64,0,110.3,13.37,14.28,248.7
"2009-11-28 00:42:00",1454770,3.196,283.1,4.711,0.164,13.21,105.5515,13.48,14.47,10.7,0,110.3,13.37,14.28,245.1
"2009-11-28 00:42:30",1454771,3.093,295.7,6.358,0.515,13.52,105.5382,13.45,14.46,10.69,0,110.3,13.37,14.25,257.7
"2009-11-28 00:43:00",1454772,3.755,301.6,6.709,0.643,13.87,105.5182,13.4,14.45,10.74,0,110.3,13.37,14.20,263.6
"2009-11-28 00:43:30",1454773,5.394,301.1,5.521,0.992,15.08,105.5179,13.4,14.5,10.89,0,110.3,13.34,14.20,263.1
"2009-11-28 00:44:00",1454774,6.528,304.2,8.73,1.346,16.04,105.5179,13.4,14.56,10.98,0,110.3,13.34,14.20,266.2
"2009-11-28 00:44:30",1454775,5.641,304.4,9.89,1.674,15.92,105.5115,13.38,14.48,11.01,0,110.3,13.34,14.18,266.4
"2009-11-28 00:45:00",1454776,3.394,289,7.072,1.114,14.8,105.4875,13.32,14.6,11.23,0,110.3,13.34,14.12,251.0
"2009-11-28 00:45:30",1454777,4.467,321,10.26,1.359,16.13,105.4841,13.31,14.63,11.29,0,110.3,13.34,14.11,283.0
"2009-11-28 00:46:00",1454778,3.084,313.9,9.22,1.173,13.61,105.4841,13.31,14.42,11.16,0,110.3,13.34,14.11,275.9
"2009-11-28 00:46:30",1454779,3.397,297.3,3.631,0.368,11.99,105.4841,13.31,14.31,11.13,0,110.3,13.37,14.11,259.3
"2009-11-28 00:47:00",1454780,3.644,294,6.158,0.319,11.97,105.4784,13.3,14.3,11.06,0,110.3,13.37,14.10,256.0
"2009-11-28 00:47:30",1454781,2.86,284.4,10.13,0.653,12.3,105.4669,13.27,14.29,11.18,0,110.3,13.37,14.07,246.4
"2009-11-28 00:48:00",1454782,2.469,293.6,6.882,0.383,12.6,105.4511,13.23,14.26,11.15,0,110.3,13.37,14.03,255.6
"2009-11-28 00:48:30",1454783,3.316,291.1,4.576,0.364,12.94,105.4502,13.22,14.26,11.33,0,110.3,13.38,14.02,253.1
"2009-11-28 00:49:00",1454784,3.065,285.5,6.527,0.261,13.27,105.4502,13.22,14.23,11.47,0,110.3,13.38,14.02,247.5
"2009-11-28 00:49:30",1454785,4.059,298.4,8.86,1.185,15.51,105.4437,13.21,14.3,11.66,0,110.3,13.34,14.01,260.4
"2009-11-28 00:50:00",1454786,3.243,292.2,6.815,1.062,15.32,105.4186,13.14,14.34,11.86,0,110.3,13.34,13.94,254.2
"2009-11-28 00:50:30",1454787,3.631,295.9,6.64,0.941,14.39,105.4164,13.14,14.34,11.9,0,110.3,13.34,13.94,257.9
"2009-11-28 00:51:00",1454788,4.37,305.1,5.941,1.47,14.98,105.4164,13.14,14.17,12.05,0,110.3,13.34,13.94,267.1
"2009-11-28 00:51:30",1454789,4.579,309.9,7.337,1.294,15.91,105.4127,13.13,14.39,12.41,0,110.3,13.34,13.93,271.9
"2009-11-28 00:52:00",1454790,5.552,322.1,7.492,1.248,16.2,105.389,13.07,14.33,12.3,0,110.3,13.33,13.87,284.1
"2009-11-28 00:52:30",1454791,2.869,295.1,10.45,0.735,12.15,105.3825,13.05,14.11,12.41,0,110.3,13.34,13.85,257.1
"2009-11-28 00:53:00",1454792,3.113,288.3,5.387,0.406,11.68,105.3825,13.05,14.08,12.5,0,110.3,13.36,13.85,250.3
"2009-11-28 00:53:30",1454793,3.601,292.5,3.432,0.491,11.92,105.3729,13.03,14.07,12.76,0,110.3,13.37,13.82,254.5
"2009-11-28 00:54:00",1454794,4.075,286.6,6.559,0.249,12.33,105.3492,12.97,14.05,13.03,0,110.2,13.37,13.76,248.6
"2009-11-28 00:54:30",1454795,4.005,298.1,3.112,0.203,12.67,105.3487,12.96,14.02,13.16,0,110.2,13.37,13.76,260.1
"2009-11-28 00:55:00",1454796,3.542,300.6,4.548,0.212,13.03,105.3487,12.96,14.06,13.3,0,110.3,13.37,13.76,262.6
"2009-11-28 00:55:30",1454797,5.074,310.5,7.784,1.601,15.43,105.3295,12.92,14.08,13.41,0,110.3,13.34,13.71,272.5
"2009-11-28 00:56:00",1454798,4.803,303.6,6.451,0.983,14.17,105.3148,12.88,14.08,13.33,0,110.3,13.34,13.68,265.6
"2009-11-28 00:56:30",1454799,5.327,307.2,4.835,0.93,13.52,105.3148,12.88,14.06,13.45,0,110.2,13.34,13.68,269.2
"2009-11-28 00:57:00",1454800,6.79,313.2,8,1.259,16.2,105.3114,12.87,14.22,13.65,0,110.2,13.34,13.67,275.2
"2009-11-28 00:57:30",1454801,6.67,314.9,9.28,1.366,15.78,105.288,12.81,14.11,13.7,0,110.2,13.34,13.61,276.9
"2009-11-28 00:58:00",1454802,5.714,300.9,6.39,1.044,12.74,105.281,12.79,14.05,14.01,0,110.2,13.34,13.59,262.9
"2009-11-28 00:58:30",1454803,5.571,301.4,3.344,0.321,11.78,105.281,12.79,13.88,14.54,0,110.2,13.38,13.59,263.4
"2009-11-28 00:59:00",1454804,4.736,297.2,4.632,0.557,12.04,105.2742,12.77,13.87,14.39,0,110.2,13.38,13.57,259.2
"2009-11-28 00:59:30",1454805,5.403,301.6,9.33,0.44,12.66,105.2517,12.72,13.84,13.98,0,110.2,13.38,13.51,263.6
"2009-11-28 01:00:00",1454806,6.313,311,6.914,1.386,14.98,105.2489,12.71,13.96,13.58,0,110.2,13.35,13.51,273.0
"2009-11-28 01:00:30",1454807,5.186,311.5,5.319,0.334,12.81,105.2504,12.71,13.87,13.79,0,110.2,13.38,13.51,273.5
"2009-11-28 01:01:00",1454808,5.735,321.5,9.1,1.322,14.3,105.2492,12.71,13.79,14.08,0,110.2,13.35,13.51,283.5
"2009-11-28 01:01:30",1454809,6.021,324.3,8.24,1.428,15.74,105.2409,12.69,13.98,14.72,0,110.2,13.35,13.49,286.3
"2009-11-28 01:02:00",1454810,5.886,324.6,7.531,1.114,16.08,105.2221,12.64,14.01,15.17,0,110.2,13.35,13.44,286.6
"2009-11-28 01:02:30",1454811,3.642,314.4,2.963,0.568,12.26,105.2216,12.64,13.83,15.4,0,110.2,13.35,13.44,276.4
"2009-11-28 01:03:00",1454812,4.199,316.8,3.191,0.253,11.56,105.2225,12.64,13.71,15.48,0,110.2,13.38,13.44,278.8
"2009-11-28 01:03:30",1454813,3.786,325,4.121,0.451,11.75,105.2231,12.64,13.7,15.5,0,110.2,13.38,13.44,287.0
"2009-11-28 01:04:00",1454814,3.705,314.3,4.293,0.524,12.04,105.2087,12.61,13.69,15.28,0,110.2,13.38,13.40,276.3
"2009-11-28 01:04:30",1454815,3.798,332.3,7.624,1.191,13.22,105.1951,12.57,13.71,15.2,0,110.2,13.35,13.37,294.3
"2009-11-28 01:05:00",1454816,4.305,334.5,8.12,1.221,14.44,105.1966,12.58,13.72,15.27,0,110.2,13.35,13.37,296.5
"2009-11-28 01:05:30",1454817,4.345,321.2,4.481,0.423,12.57,105.1931,12.57,13.62,15.24,0,110.2,13.39,13.36,283.2
"2009-11-28 01:06:00",1454818,4.67,329.9,9.08,1.107,14.23,105.1818,12.54,13.73,15.43,0,110.2,13.35,13.33,291.9
"2009-11-28 01:06:30",1454819,5.25,331.4,9.2,1.329,15.2,105.1675,12.5,13.75,15.6,0,110.3,13.35,13.30,293.4
"2009-11-28 01:07:00",1454820,6.386,335.6,4.995,1.147,16.67,105.1687,12.5,13.82,15.71,0,110.2,13.35,13.30,297.6
"2009-11-28 01:07:30",1454821,5.24,334.8,5.298,1.295,14.18,105.1696,12.51,13.7,15.58,0,110.2,13.35,13.30,296.8
"2009-11-28 01:08:00",1454822,4.003,340.8,3.007,0.16,12.11,105.1596,12.48,13.54,15.48,0,110.2,13.38,13.28,302.8
"2009-11-28 01:08:30",1454823,4.005,338.1,3.62,0.178,11.97,105.1486,12.45,13.51,15.43,0,110.2,13.38,13.25,300.1
"2009-11-28 01:09:00",1454824,4.207,344.3,2.337,0.172,12.28,105.1405,12.43,13.49,15.37,0,110.2,13.38,13.23,306.3
"2009-11-28 01:09:30",1454825,4.565,344.4,7.993,1.019,14.85,105.1417,12.43,13.63,15.37,0,110.2,13.34,13.23,306.4
"2009-11-28 01:10:00",1454826,3.836,347.1,4.305,0.527,12.79,105.1441,12.44,13.48,15.2,0,110.2,13.35,13.24,309.1
"2009-11-28 01:10:30",1454827,3.627,341.2,2.448,0.306,12.64,105.143,12.44,13.44,15.18,0,110.2,13.38,13.23,303.2
"2009-11-28 01:11:00",1454828,3.658,340.1,4.578,0.213,12.78,105.126,12.39,13.42,15.26,0,110.2,13.38,13.19,302.1
"2009-11-28 01:11:30",1454829,3.776,347.1,4.129,0.512,13.2,105.1137,12.36,13.42,15.18,0,110.2,13.35,13.16,309.1
"2009-11-28 01:12:00",1454830,4.36,0.417,9.08,1.384,15.63,105.1125,12.36,13.55,14.69,0,110.2,13.35,13.16,322.4
"2009-11-28 01:12:30",1454831,4.611,2.8,7.44,1.304,17.08,105.112,12.36,13.7,14.59,0,110.2,13.35,13.15,324.8
"2009-11-28 01:13:00",1454832,2.997,355.1,5.172,0.951,13.94,105.1123,12.36,13.53,14.23,0,110.2,13.35,13.16,317.1
"2009-11-28 01:13:30",1454833,3.329,357.8,6.573,1.299,14.08,105.1131,12.36,13.38,13.95,0,110.2,13.35,13.16,319.8
"2009-11-28 01:14:00",1454834,2.447,353.2,2.832,0.279,12.15,105.1131,12.36,13.34,13.95,0,110.2,13.39,13.16,315.2
"2009-11-28 01:14:30",1454835,1.891,359,6.954,0.388,12.13,105.1131,12.36,13.36,13.99,0,110.2,13.39,13.16,321.0
"2009-11-28 01:15:00",1454836,2.993,2.792,7.28,1.444,14.35,105.1134,12.36,13.49,14.03,0,110.2,13.35,13.16,324.8
"2009-11-28 01:15:30",1454837,1.82,5.16,5.414,0.238,12.3,105.1134,12.36,13.38,13.88,0,110.2,13.39,13.16,327.2
"2009-11-28 01:16:00",1454838,1.714,8.63,4.993,0.231,12.18,105.1134,12.36,13.34,13.78,0,110.2,13.39,13.16,330.6
"2009-11-28 01:16:30",1454839,2.097,15.72,3.049,0.19,12.45,105.1132,12.36,13.32,13.64,0,110.2,13.39,13.16,337.7
"2009-11-28 01:17:00",1454840,2.21,8.29,3.4,0.331,12.78,105.1123,12.36,13.34,13.45,0,110.2,13.39,13.16,330.3
"2009-11-28 01:17:30",1454841,2.636,15.78,5.992,0.582,13.11,105.1067,12.35,13.33,13.34,0,110.2,13.39,13.14,337.8
"2009-11-28 01:18:00",1454842,3.089,21.53,2.226,0.277,13.51,105.103,12.34,13.31,13.11,0,110.2,13.39,13.13,343.5
"2009-11-28 01:18:30",1454843,3.697,29.82,4.679,1.013,15.53,105.0937,12.31,13.46,12.91,0,110.2,13.36,13.11,351.8
"2009-11-28 01:19:00",1454844,4.048,24.11,6.716,1.362,16.01,105.0824,12.28,13.44,12.74,0,110.2,13.36,13.08,346.1
"2009-11-28 01:19:30",1454845,3.532,25.5,5.33,1.184,15.07,105.0796,12.28,13.43,12.91,0,110.2,13.36,13.07,347.5
"2009-11-28 01:20:00",1454846,2.185,13.86,4.278,0.695,13.51,105.0796,12.28,13.42,13.02,0,110.2,13.36,13.07,335.9
"2009-11-28 01:20:30",1454847,3.383,23.17,7.055,1.308,14.69,105.0796,12.28,13.33,13.03,0,110.2,13.36,13.07,345.2
"2009-11-28 01:21:00",1454848,2.557,17.99,3.502,0.671,12.92,105.0796,12.28,13.37,12.84,0,110.2,13.36,13.07,340.0
"2009-11-28 01:21:30",1454849,3.432,21.47,5.576,1.185,13.86,105.0796,12.28,13.29,12.71,0,110.2,13.36,13.07,343.5
"2009-11-28 01:22:00",1454850,2.723,21.41,2.656,0.259,12.13,105.0773,12.27,13.25,12.6,0,110.2,13.39,13.07,343.4
"2009-11-28 01:22:30",1454851,2.663,24.13,2.192,0.248,12.23,105.0705,12.25,13.25,12.59,0,110.2,13.39,13.05,346.1
"2009-11-28 01:23:00",1454852,2.937,21.36,2.428,0.224,12.54,105.0519,12.21,13.22,12.51,0,110.2,13.39,13.00,343.4
"2009-11-28 01:23:30",1454853,3.105,23.22,3.102,0.178,12.97,105.0457,12.19,13.23,12.39,0,110.2,13.39,12.98,345.2
"2009-11-28 01:24:00",1454854,3.377,26.33,2.955,0.301,13.37,105.0457,12.19,13.21,11.97,0,110.2,13.39,12.98,348.3
"2009-11-28 01:24:30",1454855,3.604,30.93,4.459,0.735,14.52,105.0457,12.19,13.33,11.78,0,110.2,13.36,12.98,352.9
"2009-11-28 01:25:00",1454856,3.566,31.47,6.257,1.363,15.2,105.0457,12.19,13.25,11.6,0,110.2,13.35,12.98,353.5
"2009-11-28 01:25:30",1454857,3.162,26.23,5.055,0.666,14.59,105.0457,12.19,13.29,11.58,0,110.2,13.35,12.98,348.2
"2009-11-28 01:26:00",1454858,3.055,24.08,2.765,0.229,14.13,105.0457,12.19,13.3,11.69,0,110.2,13.39,12.98,346.1
"2009-11-28 01:26:30",1454859,5.015,33.44,6.905,1.105,17.46,105.0457,12.19,13.4,11.87,0,110.2,13.36,12.98,355.4
"2009-11-28 01:27:00",1454860,3.923,27.31,7.366,1.318,15.24,105.0457,12.19,13.33,11.91,0,110.2,13.36,12.98,349.3
"2009-11-28 01:27:30",1454861,3.356,26.84,5.469,1.188,13.97,105.0443,12.19,13.3,11.97,0,110.2,13.36,12.98,348.8
"2009-11-28 01:28:00",1454862,2.876,26.73,4.951,0.646,12.93,105.0409,12.18,13.2,11.92,0,110.2,13.35,12.97,348.7
"2009-11-28 01:28:30",1454863,2.815,24.28,2.261,0.207,12.07,105.0381,12.17,13.13,11.88,0,110.2,13.39,12.96,346.3
"2009-11-28 01:29:00",1454864,2.846,22.92,1.694,0.188,12.21,105.0327,12.16,13.13,11.85,0,110.2,13.39,12.95,344.9
"2009-11-28 01:29:30",1454865,2.814,24.88,4.224,0.241,12.58,105.0282,12.14,13.13,11.87,0,110.2,13.39,12.94,346.9
"2009-11-28 01:30:00",1454866,2.827,22.06,2.506,0.257,12.88,105.0279,12.14,13.13,11.77,0,110.2,13.4,12.94,344.1
"2009-11-28 01:30:30",1454867,2.857,22,4.034,0.651,13.26,105.0271,12.14,13.12,11.86,0,110.2,13.37,12.94,344.0
"2009-11-28 01:31:00",1454868,3.322,26.92,7.14,1.345,15.41,105.0195,12.12,13.26,12.08,0,110.2,13.37,12.92,348.9
"2009-11-28 01:31:30",1454869,2.937,21.64,3.419,0.807,13.75,105.0135,12.11,13.12,11.95,0,110.2,13.37,12.90,343.6
"2009-11-28 01:32:00",1454870,2.359,23,2.348,0.2,13.46,105.0124,12.1,13.11,11.99,0,110.2,13.4,12.90,345.0
"2009-11-28 01:32:30",1454871,2.704,21.48,4.709,0.546,13.81,105.0118,12.1,13.1,11.94,0,110.2,13.37,12.90,343.5
"2009-11-28 01:33:00",1454872,3.813,26.17,6.909,1.34,15.97,105.0118,12.1,13.18,11.95,0,110.2,13.37,12.90,348.2
"2009-11-28 01:33:30",1454873,4.912,31.4,5.479,0.915,17.99,105.0118,12.1,13.35,12.19,0,110.2,13.37,12.90,353.4
"2009-11-28 01:34:00",1454874,3.572,24.59,7.102,1.28,15.22,105.0118,12.1,13.28,12.11,0,110.2,13.37,12.90,346.6
"2009-11-28 01:34:30",1454875,2.581,20.41,1.33,0.103,12.23,105.0118,12.1,13.07,11.95,0,110.2,13.4,12.90,342.4
"2009-11-28 01:35:00",1454876,2.306,19.16,1.443,0.2,11.93,105.0116,12.1,13.08,11.98,0,110.2,13.4,12.90,341.2
"2009-11-28 01:35:30",1454877,1.304,12.45,5.355,0.264,12.02,105.0079,12.09,13.07,12,0,110.2,13.4,12.89,334.5
"2009-11-28 01:36:00",1454878,1.149,11.24,6.636,0.227,12.17,104.9938,12.06,13.06,12.05,0,110.2,13.4,12.85,333.2
"2009-11-28 01:36:30",1454879,1.429,0.903,3.953,0.205,12.41,104.9808,12.02,13.04,12.05,0,110.2,13.4,12.82,322.9
"2009-11-28 01:37:00",1454880,1.958,14,5.039,0.596,12.87,104.978,12.02,13.04,12.11,0,110.2,13.37,12.81,336.0
"2009-11-28 01:37:30",1454881,2.378,20.24,6.312,1.114,15.3,104.978,12.02,13.19,12.3,0,110.2,13.37,12.81,342.2
"2009-11-28 01:38:00",1454882,1.679,15.08,7.827,0.732,13.27,104.978,12.02,13.03,12.16,0,110.2,13.37,12.81,337.1
"2009-11-28 01:38:30",1454883,1.179,9.55,15.36,0.724,13.03,104.978,12.02,13.01,11.97,0,110.2,13.4,12.81,331.5
"2009-11-28 01:39:00",1454884,1.454,347.7,14.67,0.679,12.74,104.9746,12.01,13.01,12.29,0,110.2,13.4,12.80,309.7
"2009-11-28 01:39:30",1454885,2.845,327.9,1.874,0.193,12.53,104.9675,11.99,13,13.27,0,110.2,13.4,12.78,289.9
"2009-11-28 01:40:00",1454886,4.329,343.4,9.06,1.235,16.25,104.9605,11.97,13.29,14.32,0,110.2,13.37,12.77,305.4
"2009-11-28 01:40:30",1454887,4.735,345.7,5.535,0.935,16.95,104.9481,11.94,13.28,14.69,0,110.2,13.37,12.73,307.7
"2009-11-28 01:41:00",1454888,3.157,339.8,5.912,1.176,13.43,104.9441,11.93,13.01,14.77,0,110.2,13.36,12.72,301.8
"2009-11-28 01:41:30",1454889,2.301,335.7,2.619,0.165,11.37,104.9441,11.93,12.95,14.84,0,110.2,13.39,12.72,297.7
"2009-11-28 01:42:00",1454890,1.868,335.2,3.855,0.143,11.22,104.9438,11.93,12.94,14.59,0,110.2,13.39,12.72,297.2
"2009-11-28 01:42:30",1454891,1.698,346.9,7.111,0.195,11.4,104.9357,11.91,12.91,14.61,0,110.2,13.39,12.70,308.9
"2009-11-28 01:43:00",1454892,1.83,349.2,6.04,0.423,11.61,104.9176,11.86,12.94,14.99,0,110.2,13.39,12.66,311.2
"2009-11-28 01:43:30",1454893,2.833,2.946,7.332,1.738,14.05,104.9103,11.84,13,15.3,0,110.2,13.36,12.64,324.9
"2009-11-28 01:44:00",1454894,1.576,357.3,9.07,0.563,12.24,104.9103,11.84,12.96,15.02,0,110.2,13.4,12.64,319.3
"2009-11-28 01:44:30",1454895,1.712,350.9,16.54,0.463,12.04,104.91,11.84,12.87,15.1,0,110.2,13.4,12.64,312.9
"2009-11-28 01:45:00",1454896,1.716,18.47,2.393,0.16,12.5,104.9055,11.83,12.85,14.92,0,110.2,13.4,12.62,340.5
"2009-11-28 01:45:30",1454897,2.402,25.17,6.722,1.11,13.68,104.882,11.77,12.84,14.46,0,110.2,13.37,12.56,347.2
"2009-11-28 01:46:00",1454898,2.597,29.5,9.53,1.182,14.73,104.8764,11.76,13,14.56,0,110.2,13.37,12.55,351.5
"2009-11-28 01:46:30",1454899,1.657,21.26,3.575,0.497,12.59,104.8764,11.76,12.8,14.43,0,110.2,13.37,12.55,343.3
"2009-11-28 01:47:00",1454900,3.346,33.16,6.21,1.349,15.29,104.8739,11.75,13.01,14.66,0,110.2,13.37,12.54,355.2